2023/09/22 00:00:00,16.6,21.1
2023/09/22 00:10:00,16.6,21.0
2023/09/22 00:20:00,16.6,21.2
2023/09/22 00:30:00,16.6,21.1
2023/09/22 00:40:00,16.7,21.2
2023/09/22 00:50:00,16.8,21.2
2023/09/22 01:00:00,16.8,21.2
2023/09/22 01:10:00,16.8,21.2
2023/09/22 01:20:00,16.8,21.1
2023/09/22 01:30:00,16.9,21.1
2023/09/22 01:40:00,16.8,21.0
2023/09/22 01:50:00,17.1,21.1
2023/09/22 02:00:00,16.9,21.1
2023/09/22 02:10:00,17.0,21.1
2023/09/22 02:20:00,17.3,21.0
2023/09/22 02:30:00,17.0,21.0
2023/09/22 02:40:00,17.3,20.9
2023/09/22 02:50:00,17.3,20.8
2023/09/22 03:00:00,17.1,20.8
2023/09/22 03:10:00,17.4,21.1
2023/09/22 03:20:00,17.6,20.9
2023/09/22 03:30:00,16.5,20.8
2023/09/22 03:40:00,15.9,20.8
2023/09/22 03:50:00,16.6,20.9
2023/09/22 04:00:00,17.0,20.8
2023/09/22 04:10:00,16.6,20.8
2023/09/22 04:20:00,16.7,20.5
2023/09/22 04:30:00,16.6,20.7
2023/09/22 04:40:00,16.8,20.9
2023/09/22 04:50:00,16.9,20.6
2023/09/22 05:00:00,13.9,20.5
2023/09/22 05:10:00,15.8,20.5
2023/09/22 05:20:00,16.8,20.7
2023/09/22 05:30:00,17.2,20.8
2023/09/22 05:40:00, 4.7,20.6
2023/09/22 05:50:00, 0.0,20.6
2023/09/22 06:00:00, 0.0,20.5
2023/09/22 06:10:00, 0.0,20.7
2023/09/22 06:20:00, 0.0,20.7
2023/09/22 06:30:00, 0.0,20.6
2023/09/22 06:40:00,10.1,20.8
2023/09/22 06:50:00,33.9,20.9
2023/09/22 07:00:00,31.9,20.8
2023/09/22 07:10:00,---,21.0
2023/09/22 07:20:00,34.9,20.9
2023/09/22 07:30:00,34.7,21.0
2023/09/22 07:40:00,12.9,21.2
2023/09/22 07:50:00, 0.0,21.2
2023/09/22 08:00:00, 0.0,21.4
2023/09/22 08:10:00, 0.0,21.4
2023/09/22 08:20:00, 0.0,21.2
2023/09/22 08:30:00, 0.0,21.4
2023/09/22 08:40:00, 0.0,22.0
2023/09/22 08:50:00, 0.0,21.8
2023/09/22 09:00:00, 0.0,22.9
2023/09/22 09:10:00,---,22.6
2023/09/22 09:20:00, 1.4,22.6
2023/09/22 09:30:00,28.7,22.6
2023/09/22 09:40:00,35.9,22.9
2023/09/22 09:50:00,39.0,22.8
2023/09/22 10:00:00,39.3,22.9
2023/09/22 10:10:00,---,23.1
2023/09/22 10:20:00, 8.8,23.4
2023/09/22 10:30:00,13.4,24.0
2023/09/22 10:40:00,11.8,23.9
2023/09/22 10:50:00,20.2,23.4
2023/09/22 11:00:00,20.0,23.7
2023/09/22 11:10:00,19.7,23.8
2023/09/22 11:20:00,20.4,24.1
2023/09/22 11:30:00,19.8,24.1
2023/09/22 11:40:00,20.1,23.5
2023/09/22 11:50:00,20.3,24.3
2023/09/22 12:00:00,19.3,24.3
2023/09/22 12:10:00,18.0,24.0
2023/09/22 12:20:00,13.6,24.2
2023/09/22 12:30:00,---,23.7
2023/09/22 12:40:00,---,23.4
2023/09/22 12:50:00,34.0,22.9
2023/09/22 13:00:00,36.9,22.7
2023/09/22 13:10:00,29.3,22.7
2023/09/22 13:20:00,25.8,22.5
2023/09/22 13:30:00,25.0,22.4
2023/09/22 13:40:00,26.9,22.1
2023/09/22 13:50:00,26.8,22.6
2023/09/22 14:00:00,26.1,22.7
2023/09/22 14:10:00,28.5,23.1
2023/09/22 14:20:00,38.4,22.7
2023/09/22 14:30:00,---,22.8
2023/09/22 14:40:00,36.8,22.7
2023/09/22 14:50:00,37.9,23.3
2023/09/22 15:00:00,37.1,22.6
2023/09/22 15:10:00,19.7,22.3
2023/09/22 15:20:00, 6.0,22.1
2023/09/22 15:30:00,18.2,22.2
2023/09/22 15:40:00,19.4,22.2
2023/09/22 15:50:00,---,21.7
2023/09/22 16:00:00,19.2,21.6
2023/09/22 16:10:00,19.1,21.6
2023/09/22 16:20:00,16.0,21.4
2023/09/22 16:30:00, 4.0,21.4
2023/09/22 16:40:00,11.3,21.3
2023/09/22 16:50:00,18.9,21.1
2023/09/22 17:00:00,---,21.0
2023/09/22 17:10:00,19.3,20.7
2023/09/22 17:20:00,19.3,20.5
2023/09/22 17:30:00,19.3,20.5
2023/09/22 17:40:00,19.1,20.4
2023/09/22 17:50:00,19.0,20.3
2023/09/22 18:00:00,19.3,20.2
2023/09/22 18:10:00,19.2,19.7
2023/09/22 18:20:00,19.3,19.6
2023/09/22 18:30:00,19.1,19.4
2023/09/22 18:40:00,19.1,19.5
2023/09/22 18:50:00,18.6,19.4
2023/09/22 19:00:00,18.2,19.3
2023/09/22 19:10:00,17.4,19.3
2023/09/22 19:20:00,16.6,19.3
2023/09/22 19:30:00,16.5,19.3
2023/09/22 19:40:00,16.2,19.4
2023/09/22 19:50:00,16.2,19.4
2023/09/22 20:00:00,16.5,19.4
2023/09/22 20:10:00,17.1,19.7
2023/09/22 20:20:00,17.2,19.1
2023/09/22 20:30:00,17.5,18.8
2023/09/22 20:40:00,17.8,18.8
2023/09/22 20:50:00,17.7,18.8
2023/09/22 21:00:00,18.0,18.7
2023/09/22 21:10:00,17.8,18.8
2023/09/22 21:20:00,17.7,18.7
2023/09/22 21:30:00,17.6,18.8
2023/09/22 21:40:00,17.4,18.7
2023/09/22 21:50:00,17.4,18.5
2023/09/22 22:00:00,17.1,18.5
2023/09/22 22:10:00,17.1,18.4
2023/09/22 22:20:00,16.7,18.7
2023/09/22 22:30:00,16.6,18.4
2023/09/22 22:40:00,16.4,18.4
2023/09/22 22:50:00,16.1,18.4
2023/09/22 23:00:00,15.7,18.2
2023/09/22 23:10:00,15.7,18.0
2023/09/22 23:20:00,16.0,18.2
2023/09/22 23:30:00,15.7,18.1
2023/09/22 23:40:00,15.1,18.0
2023/09/22 23:50:00,14.1,17.9
